EHI
0 0 0 0 0 0 0 0 0 0 0 0 0 0 0 0 0 0 0 0 0 0 0 0 0 0 0 0 0 0 0 0 0 0 0 0 0 0
0 0 0 0 0 0 0 0 0 0 0 0 0 0 0 0 0 0 0 0 0 0 0 0 0 0 0 0 0 0 0 0 0 0 0 0 0 0
0 0 0 0 0 0 0 0 0 0 0 0 0 0 0 0 0 0 0 0 0 0 0 0 0 0 0 0 0 0 0 0 0 0 0 0 0 0
0 0 0 0 0 0 0 0 0 0 0 0 0 0 0 0 0 0 0 0 0 0 0 0 0 0 0 0 0 0 0 0 0 0 0 0 0 0
0 0 0 0 0 0 0 0 0 0 0 0 0 0 0 0 0 0 0 0 0 0 0 0 0 0 0 0 0 0 0 0 0 0 0 0 0 0
0 0 0 0 0 0 0 0 0 0 0 0 0 0 0 0 0 0 0 0 0 0 0 0 0 0 0 0 0 0 0 0 0 0 0 0 0 0
0 0 0 0 0 0 0 0 0 0 0 0 0 0 0 0 0 0 0 0 0 0 0 0 0 0 0 0 0 0 0 0 0 0 0 0 0 0
0 0 0 0 0 0 0 0 0 0 0 0 0 0 0 0 0 0 0 0 0 0 0 0 0 0 0 0 0 0 0 0 0 0 0 0 0 0
0 0 0 0 0 0 0 0 0 0 0 0 0 0 0 0 0 0 0 0 0 0 0 0 0 0 0 0 0 0 0 0 0 0 0 0 0 0
0 0 0 0 0 0 0 0 0 0 0 0 0 0 0 0 0 0 0 0 0 0 0 0 0 0 0 0 0 0 0 0 0 0 0 0 0 0
0 0 0 0 0 0 0 0 0 0 0 0 0 0 0 0 0 0 0 0 0 0 0 0 0 0 0 0 0 0 0 0 0 0 0 0 0 0
0 0 0 0 0 0 0 0 0 0 0 0 0 0 0 0 0 0 0 0 0 0 0 0 0 0 0 0 0 0 0 0 0 0 0 0 0 0
0 0 0 0 0 0 0 0 0 0 0 0 0 0 0 0 0 0 0 0 0 0 0 0 0 0 0 0 0 0 0 0 0 0 0 0 0 0
0 0 0 0 0 0 0 0 0 0 0 0 0 0 0 0 0 0 0 0 0 0 0 0 0 0 0 0 0 0 0 0 0 0 0 0 0 0
0 0 0 0 0 0 0 0 0 0 0 0 0 0 0 0 0 0 0 0 0 0 0 0 0 0 0 0 0 0 0 0 0 0 0 0 0 0
0 0 0 0 0 0 0 0 0 0 0 0 0 0 0 0 0 0 0 0 0 0 0 0 0 0 0 0 0 0 0 0 0 0 0 0 0 0
0 0 0 0 0 0 0 0 0 0 0 0 0 0 0 0 0 0 0 0 0 0 0 0 0 0 0 0 0 0 0 0 0 0 0 0 0 0
0 0 0 0 0 0 0 0 0 0 0 0 0 0 0 0 0 0 0 0 0 0 0 0 0 0 0 0 0 0 0 0 0 0 0 0 0 0
0 0 0 0 0 0 0 0 0 0 0 0 0 0 0 0 0 0 0 0 0 0 0 0 0 0 0 0 0 0 0 0 0 0 0 0 0 0
0 0 0 0 0 0 0 0 0 0 0 0 0 0 0 0 0 0 0 0 0 0 0 0 0 0 0 0 0 0 0 0 0 0 0 0 0 0
0 0 0 0 0 0 0 0 0 0 0 0 0 0 0 0 0 0 0 0 0 0 0 0 0 0 0 0 0 0 0 0 0 0 0 0 0 0
0 0 0 0 0 0 0 0 0 0 0 0 0 0 0 0 0 0 0 0 0 0 0 0 0 0 0 0 0 0 0 0 0 0 0 0 0 0
0 0 0 0 0 0 0 0 0 0 0 0 0 0 0 0 0 0 0 0 0 0 0 0 0 0 0 0 0 0 0 0 0 0 0 0 0 0
Wind_Speed
6 6 5 4 4 4 4 4 4 6 6 4 3 3 3 3 6 5 5 11 14 15 16 17 18 18 19 19 20 20 20 21 21 21 22 22 22 22
5 6 5 4 4 4 4 4 4 5 7 3 3 3 4 4 7 4 5 11 13 16 17 17 18 19 19 19 20 21 21 21 21 22 22 22 23 23
6 6 7 5 4 4 4 4 4 4 8 6 3 3 3 4 4 3 3 4 6 15 17 18 18 18 19 19 20 21 21 21 21 22 22 22 22 22
6 6 6 5 5 4 4 5 5 5 6 8 4 3 4 4 4 4 4 5 4 12 17 18 19 18 19 19 20 21 21 21 21 21 22 22 22 22
6 7 6 6 6 5 5 5 4 5 4 5 5 3 3 3 4 4 5 4 5 9 14 16 17 19 19 20 20 20 20 20 21 21 21 22 22 22
5 5 6 6 7 6 5 5 4 4 3 4 5 4 3 3 3 4 5 4 5 6 9 11 14 18 19 20 20 20 19 20 21 21 21 20 20 21
4 4 5 6 6 5 4 4 3 3 3 4 5 4 4 3 4 3 5 5 5 4 4 5 6 6 8 13 17 19 20 20 20 20 20 20 20 20
4 4 4 5 5 7 8 7 6 5 4 4 4 5 6 4 4 4 4 5 5 3 3 5 4 5 5 5 13 19 20 20 19 19 19 19 19 20
4 3 3 3 3 3 5 7 7 9 9 6 5 6 5 4 4 5 5 5 6 4 4 6 4 5 5 8 17 19 19 19 19 19 19 19 18 18
3 3 2 2 3 3 3 3 4 5 5 4 4 5 5 4 4 5 5 5 5 4 3 6 4 5 7 6 14 17 18 18 18 19 19 19 18 18
2 2 2 3 5 5 3 3 4 4 6 8 9 8 10 11 8 3 3 4 5 4 2 3 4 5 5 5 8 15 17 18 19 20 19 18 18 17
2 2 3 4 5 5 3 3 4 4 3 4 5 6 6 6 9 4 2 3 4 4 2 2 3 4 5 4 4 5 8 14 18 19 19 18 18 9
2 2 2 5 6 6 5 3 6 5 2 2 3 3 3 2 2 2 2 3 4 5 3 2 3 3 4 6 5 4 4 5 7 10 14 17 17 12
2 2 2 4 6 7 5 5 7 5 1 2 2 3 2 2 2 3 3 4 5 6 5 4 4 4 5 7 6 5 5 5 5 5 5 11 13 16
1 3 4 5 5 4 5 6 4 1 1 2 3 3 2 2 2 2 3 4 5 5 5 4 5 5 5 7 7 6 7 6 4 4 5 6 6 6
1 2 4 4 3 3 4 3 1 1 2 2 2 2 2 2 2 2 3 3 4 4 5 5 5 5 6 7 7 8 6 5 6 6 6 6 6 5
1 1 1 1 1 1 1 1 1 1 2 2 2 2 3 3 3 2 3 3 3 4 4 4 4 5 6 7 7 7 7 6 6 6 7 8 7 6
1 1 2 2 2 2 2 1 1 2 2 2 2 2 3 3 3 3 3 3 4 5 4 4 4 4 4 5 7 6 5 5 6 6 6 7 8 6
1 2 2 2 2 2 2 2 2 2 2 2 2 2 2 3 3 4 4 4 4 4 4 3 3 4 6 7 6 5 5 6 6 6 5 6 8 8
1 2 2 2 2 2 2 2 2 2 2 2 2 2 2 3 4 4 4 4 5 5 4 4 3 4 5 6 6 6 9 7 6 7 7 6 6 10
2 2 2 2 2 2 2 2 2 2 2 2 2 3 3 3 4 4 4 7 6 4 5 5 5 9 5 4 5 6 6 9 10 7 7 6 6 5
2 2 2 2 2 2 2 2 2 2 3 3 3 3 3 3 4 5 4 4 4 4 5 5 5 4 3 4 7 8 7 7 9 12 10 8 5 5
2 2 2 2 2 2 2 2 3 3 3 3 3 3 3 3 3 4 4 4 4 5 5 5 4 3 4 4 6 6 8 8 6 6 6 10 12 12
Wind_Direction
210 212 218 219 212 216 214 206 227 266 268 246 247 244 241 237 244 238 235 258 268 273 277 281 285 287 289 291 292 293 293 294 294 293 292 291 292 293
205 210 219 219 215 212 215 219 216 235 264 252 248 258 255 262 263 255 243 269 272 278 280 283 286 288 289 290 292 292 292 292 292 292 291 291 292 292
208 211 220 214 214 216 214 218 224 224 258 270 258 272 270 273 279 267 266 265 273 281 285 288 289 289 289 291 292 292 292 293 293 292 292 292 292 292
212 212 222 216 217 215 214 221 228 226 242 268 273 271 269 269 270 274 279 278 271 284 288 290 291 292 293 293 293 293 294 294 294 293 292 292 292 292
211 214 218 212 222 222 220 222 230 240 239 259 275 273 272 278 283 283 281 280 283 288 291 291 294 295 296 296 296 295 295 294 293 293 293 292 292 292
215 215 215 214 220 222 224 225 228 237 246 259 271 278 276 282 282 280 286 275 282 288 287 291 295 298 298 298 297 297 296 295 295 294 293 293 293 292
221 221 222 226 230 229 232 223 220 232 243 256 268 277 274 277 269 268 279 284 276 270 280 286 291 285 290 294 298 298 299 298 297 296 296 295 293 292
227 230 228 223 235 249 257 255 243 236 240 245 258 262 269 269 273 280 287 295 291 275 284 286 281 281 281 276 293 298 298 298 297 298 297 296 296 294
219 222 234 230 233 229 255 262 261 264 263 257 257 258 268 268 274 279 272 271 273 278 291 284 278 281 285 295 299 299 301 302 301 300 299 299 298 298
211 209 216 225 230 232 228 243 250 257 265 263 248 254 261 265 257 266 271 280 277 280 280 282 285 282 292 288 294 299 305 307 307 306 304 301 300 299
209 202 208 219 248 259 246 249 263 270 283 285 286 287 292 296 298 301 302 299 296 289 268 275 290 299 287 277 289 304 310 311 309 307 306 305 304 303
202 210 237 248 260 266 243 239 259 265 272 287 289 292 291 290 296 287 268 282 294 293 282 295 292 311 302 279 284 299 304 307 310 309 308 307 306 306
202 214 232 262 272 277 277 250 265 282 267 271 278 281 283 282 284 275 255 248 266 270 282 299 291 286 275 296 297 291 293 302 306 304 307 308 308 308
205 205 230 269 281 285 285 281 290 302 300 285 282 281 283 282 276 271 267 259 250 258 266 265 271 279 286 291 292 297 303 299 296 296 299 307 307 306
215 246 269 280 290 285 286 292 301 295 271 281 284 283 275 274 281 287 289 285 283 276 276 269 271 277 273 282 289 295 305 301 288 300 305 302 297 298
222 250 279 293 296 287 290 300 295 255 267 259 270 277 289 293 290 290 290 293 291 290 282 272 268 269 275 275 280 288 290 290 303 306 303 296 291 286
181 172 212 240 235 266 276 266 257 285 289 276 274 283 292 296 296 295 290 292 286 290 297 292 278 267 261 268 277 277 283 286 289 300 304 301 292 285
224 198 223 226 232 240 255 273 271 266 263 268 276 280 286 291 296 298 294 286 287 289 291 295 306 308 302 278 249 267 277 283 292 295 296 298 296 293
224 211 229 236 241 242 244 252 262 262 257 262 268 275 283 291 297 299 300 295 290 288 290 296 303 304 308 308 291 263 282 296 298 296 290 290 292 296
208 217 228 234 235 237 242 258 265 271 268 269 269 270 274 282 288 291 293 291 292 295 297 295 289 287 286 292 291 291 289 288 294 298 297 292 282 287
217 223 225 226 231 233 237 245 251 259 262 265 266 266 266 273 280 284 287 296 298 296 297 296 288 303 291 282 288 289 285 292 299 298 299 301 301 298
218 221 225 226 226 227 232 240 252 261 265 264 265 265 266 269 276 282 284 287 287 287 288 290 293 297 283 285 294 297 299 303 307 308 302 295 297 301
217 220 224 226 226 227 231 241 249 258 257 256 261 264 264 268 272 276 280 282 286 290 294 298 301 294 283 281 289 295 299 305 311 315 306 312 310 300